• In Lithuania
  • List of Countries
  • For 7 days
  • Water Temperature
  • Satellite Maps
  • Weather Map
  • Weather Widgets
  • user-avatar
    Login

    Hourly Weather Ali Bayramli

    Today, 26 April, Thursday

    Time Temperature Precipitation Wind Pressure Humidity
    00:00 +13°C° 0 mm 1 mps 762 mmHg 86%
    01:00 +13°C° 0 mm 1 mps 762 mmHg 87%
    02:00 +13°C° 0 mm 1 mps 762 mmHg 87%
    03:00 +13°C° 0 mm 1 mps 762 mmHg 88%
    04:00 +13°C° 0 mm 1 mps 762 mmHg 86%
    05:00 +14°C° 0 mm 1 mps 762 mmHg 83%
    06:00 +14°C° 0 mm 1 mps 762 mmHg 81%
    07:00 +16°C° 0 mm 1 mps 762 mmHg 74%
    08:00 +19°C° 0 mm 1 mps 762 mmHg 67%
    09:00 +20°C° 0 mm 2 mps 762 mmHg 58%
    10:00 +21°C° 0 mm 2 mps 762 mmHg 53%
    11:00 +23°C° 0 mm 2 mps 762 mmHg 49%
    12:00 +25°C° 0 mm 2 mps 762 mmHg 44%
    13:00 +25°C° 0 mm 3 mps 761 mmHg 43%
    14:00 +25°C° 0 mm 3 mps 761 mmHg 43%
    15:00 +26°C° 0 mm 4 mps 761 mmHg 42%
    16:00 +23°C° 0 mm 4 mps 761 mmHg 46%
    17:00 +22°C° 0 mm 4 mps 761 mmHg 49%
    18:00 +20°C° 0 mm 4 mps 761 mmHg 53%
    19:00 +19°C° 0 mm 4 mps 761 mmHg 55%
    20:00 +18°C° 0 mm 3 mps 762 mmHg 58%
    21:00 +17°C° 0 mm 2 mps 762 mmHg 61%
    22:00 +17°C° 0 mm 2 mps 762 mmHg 62%
    23:00 +16°C° 0 mm 1 mps 762 mmHg 63%

    Tomorrow, 27 April, Friday

    Time Temperature Precipitation Wind Pressure Humidity
    00:00 +16°C° 0 mm 1 mps 762 mmHg 64%
    01:00 +16°C° 0 mm 1 mps 762 mmHg 65%
    02:00 +15°C° 0 mm 1 mps 761 mmHg 65%
    03:00 +15°C° 0 mm 1 mps 761 mmHg 65%
    04:00 +16°C° 0 mm 1 mps 761 mmHg 64%
    05:00 +16°C° 0 mm 1 mps 762 mmHg 63%
    06:00 +16°C° 0 mm 1 mps 762 mmHg 61%
    07:00 +19°C° 0 mm 1 mps 762 mmHg 55%
    08:00 +21°C° 0 mm 1 mps 762 mmHg 50%
    09:00 +22°C° 0 mm 1 mps 762 mmHg 44%
    10:00 +24°C° 0 mm 1 mps 761 mmHg 40%
    11:00 +25°C° 0 mm 2 mps 761 mmHg 36%
    12:00 +26°C° 0 mm 3 mps 761 mmHg 32%
    13:00 +27°C° 0 mm 3 mps 760 mmHg 31%
    14:00 +27°C° 0 mm 4 mps 760 mmHg 30%
    15:00 +27°C° 0 mm 4 mps 759 mmHg 29%
    16:00 +26°C° 0 mm 4 mps 759 mmHg 33%
    17:00 +24°C° 0 mm 3 mps 759 mmHg 37%
    18:00 +22°C° 0 mm 3 mps 759 mmHg 41%
    19:00 +21°C° 0 mm 2 mps 759 mmHg 43%
    20:00 +20°C° 0 mm 2 mps 759 mmHg 45%
    21:00 +20°C° 0 mm 1 mps 759 mmHg 46%
    22:00 +20°C° 0 mm 1 mps 758 mmHg 48%
    23:00 +19°C° 0 mm 1 mps 758 mmHg 49%

    Day after tomorrow, 28 April, Saturday

    Time Temperature Precipitation Wind Pressure Humidity
    00:00 +19°C° 0 mm 1 mps 758 mmHg 51%
    01:00 +18°C° 0 mm 1 mps 757 mmHg 51%
    02:00 +18°C° 0 mm 1 mps 757 mmHg 51%
    03:00 +18°C° 0 mm 1 mps 757 mmHg 51%
    04:00 +18°C° 0 mm 1 mps 757 mmHg 51%
    05:00 +18°C° 0 mm 2 mps 757 mmHg 51%
    06:00 +18°C° 0 mm 2 mps 757 mmHg 51%
    07:00 +20°C° 0 mm 2 mps 757 mmHg 46%
    08:00 +23°C° 0 mm 2 mps 757 mmHg 40%
    09:00 +25°C° 0 mm 3 mps 757 mmHg 35%
    10:00 +26°C° 0 mm 3 mps 758 mmHg 33%
    11:00 +27°C° 0 mm 3 mps 758 mmHg 31%
    12:00 +28°C° 0 mm 3 mps 758 mmHg 29%
    13:00 +29°C° 0 mm 4 mps 758 mmHg 30%
    14:00 +29°C° 0 mm 5 mps 758 mmHg 31%
    15:00 +30°C° 0 mm 6 mps 757 mmHg 31%
    16:00 +29°C° 0 mm 6 mps 758 mmHg 35%
    17:00 +27°C° 0 mm 7 mps 758 mmHg 39%
    18:00 +26°C° 0 mm 7 mps 758 mmHg 43%
    19:00 +24°C° 0 mm 6 mps 759 mmHg 45%
    20:00 +23°C° 0 mm 6 mps 759 mmHg 47%
    21:00 +22°C° 0 mm 6 mps 760 mmHg 49%
    22:00 +21°C° 0 mm 5 mps 760 mmHg 51%
    23:00 +20°C° 0 mm 4 mps 760 mmHg 53%

    29 April, Sunday

    Time Temperature Precipitation Wind Pressure Humidity
    00:00 +20°C° 0 mm 3 mps 760 mmHg 55%
    01:00 +19°C° 0 mm 3 mps 760 mmHg 56%
    02:00 +19°C° 0 mm 3 mps 760 mmHg 58%
    03:00 +19°C° 0 mm 2 mps 760 mmHg 59%
    04:00 +19°C° 0 mm 2 mps 760 mmHg 59%
    05:00 +20°C° 0 mm 1 mps 761 mmHg 59%
    06:00 +20°C° 0 mm 1 mps 761 mmHg 59%
    07:00 +22°C° 0 mm 1 mps 761 mmHg 54%
    08:00 +24°C° 0 mm 2 mps 761 mmHg 48%
    09:00 +25°C° 0 mm 3 mps 762 mmHg 43%
    10:00 +26°C° 0 mm 4 mps 761 mmHg 41%
    11:00 +27°C° 0 mm 5 mps 761 mmHg 39%
    12:00 +28°C° 0 mm 6 mps 761 mmHg 37%
    13:00 +27°C° 0 mm 6 mps 761 mmHg 38%
    14:00 +27°C° 0 mm 7 mps 761 mmHg 38%
    15:00 +27°C° 0 mm 8 mps 761 mmHg 39%
    16:00 +26°C° 0 mm 8 mps 761 mmHg 41%
    17:00 +23°C° 0 mm 8 mps 761 mmHg 43%
    18:00 +22°C° 0 mm 9 mps 761 mmHg 44%
    19:00 +21°C° 0.1 mm 8 mps 762 mmHg 44%
    20:00 +20°C° 0.1 mm 8 mps 762 mmHg 44%
    21:00 +18°C° 0.1 mm 8 mps 763 mmHg 44%
    22:00 +18°C° 0.3 mm 7 mps 763 mmHg 45%
    23:00 +17°C° 0.3 mm 6 mps 763 mmHg 46%

    30 April, Monday

    Time Temperature Precipitation Wind Pressure Humidity
    00:00 +16°C° 0.3 mm 6 mps 763 mmHg 47%
    01:00 +16°C° 0 mm 5 mps 763 mmHg 48%
    02:00 +15°C° 0 mm 5 mps 763 mmHg 49%
    03:00 +15°C° 0 mm 4 mps 763 mmHg 50%
    04:00 +15°C° 0 mm 4 mps 763 mmHg 49%
    05:00 +15°C° 0 mm 4 mps 763 mmHg 48%
    06:00 +16°C° 0 mm 3 mps 763 mmHg 47%
    07:00 +17°C° 0 mm 4 mps 764 mmHg 42%
    08:00 +19°C° 0 mm 4 mps 764 mmHg 37%
    09:00 +20°C° 0 mm 4 mps 764 mmHg 31%
    10:00 +22°C° 0 mm 4 mps 764 mmHg 30%
    11:00 +23°C° 0 mm 5 mps 763 mmHg 29%
    12:00 +25°C° 0 mm 5 mps 763 mmHg 27%
    13:00 +25°C° 0 mm 5 mps 763 mmHg 27%
    14:00 +24°C° 0 mm 6 mps 763 mmHg 27%
    15:00 +26°C° 0 mm 6 mps 763 mmHg 27%
    16:00 +24°C° 0 mm 6 mps 763 mmHg 29%
    17:00 +23°C° 0 mm 6 mps 763 mmHg 32%
    18:00 +22°C° 0 mm 6 mps 763 mmHg 34%
    19:00 +21°C° 0 mm 5 mps 763 mmHg 36%
    20:00 +20°C° 0 mm 5 mps 764 mmHg 37%
    21:00 +19°C° 0 mm 4 mps 764 mmHg 39%
    22:00 +18°C° 0 mm 4 mps 764 mmHg 41%
    23:00 +18°C° 0 mm 3 mps 764 mmHg 43%

    1 May, Tuesday

    Time Temperature Precipitation Wind Pressure Humidity
    00:00 +17°C° 0 mm 2 mps 764 mmHg 45%
    01:00 +17°C° 0 mm 2 mps 763 mmHg 47%
    02:00 +16°C° 0 mm 2 mps 763 mmHg 48%
    03:00 +16°C° 0 mm 2 mps 763 mmHg 50%
    04:00 +16°C° 0 mm 1 mps 763 mmHg 50%
    05:00 +18°C° 0 mm 1 mps 764 mmHg 50%
    06:00 +18°C° 0 mm 1 mps 764 mmHg 50%
    07:00 +19°C° 0 mm 1 mps 764 mmHg 47%
    08:00 +20°C° 0 mm 2 mps 764 mmHg 44%
    09:00 +21°C° 0 mm 2 mps 764 mmHg 40%
    10:00 +23°C° 0 mm 2 mps 764 mmHg 40%
    11:00 +24°C° 0 mm 3 mps 763 mmHg 40%
    12:00 +25°C° 0 mm 3 mps 763 mmHg 40%
    13:00 +25°C° 0 mm 4 mps 763 mmHg 42%
    14:00 +25°C° 0 mm 4 mps 762 mmHg 44%
    15:00 +25°C° 0 mm 5 mps 762 mmHg 46%
    16:00 +22°C° 0 mm 5 mps 762 mmHg 52%
    17:00 +21°C° 0 mm 5 mps 762 mmHg 57%
    18:00 +19°C° 0 mm 5 mps 762 mmHg 62%
    19:00 +18°C° 0 mm 4 mps 763 mmHg 65%
    20:00 +18°C° 0 mm 3 mps 763 mmHg 68%
    21:00 +17°C° 0 mm 3 mps 763 mmHg 71%
    22:00 +16°C° 0 mm 2 mps 763 mmHg 71%
    23:00 +16°C° 0 mm 2 mps 763 mmHg 70%
    Show more